Weather History for PHMK - October, 2012

Change the Weather History Date:

Tuesday, October 16, 2012

  Actual Average (WUND) Record (WUND)
Temperature  
Mean Temperature 78 °F -  
Max Temperature 82 °F - - (-1)
Min Temperature 73 °F - - (-1)
Cooling Degree Days 12    
Growing Degree Days 28 (Base 50)    
Moisture  
Dew Point 66 °F    
Average Humidity 68    
Maximum Humidity 80    
Minimum Humidity 55    
Precipitation  
Precipitation 0.00 in - - ()
Sea Level Pressure  
Sea Level Pressure 29.99 in    
Wind  
Wind Speed 7 mph (NE)    
Max Wind Speed 14 mph    
Max Gust Speed 21 mph    
Visibility 10 miles    
Events Rain    
Averages and records for this station are not official NWS values.
T = Trace of Precipitation, MM = Missing Value Source: NWS Daily Summary

Daily Weather History Graph

Daily Weather History Graph

Search for Another Location

Airport or City:

Trip Planner

Search our weather history database for the weather conditions in past years. The results will help you decide how hot, cold, wet, or windy it might be!

Date:

Astronomy

Oct. 16, 2012 Rise Set
Actual Time 6:24 AM HST 6:02 PM HST
Civil Twilight 6:02 AM HST 6:25 PM HST
Nautical Twilight 5:36 AM HST 6:50 PM HST
Astronomical Twilight 5:10 AM HST 7:16 PM HST
Moon 7:44 AM HST (10/16) 7:15 PM HST (10/16)
Length of Visible Light 12h 22m
Length of Day
11h 38m
Waxing Crescent, 3% of the Moon is Illuminated
Oct 16
Waxing Crescent
Oct 21
First Quarter
Oct 29
Full
Nov 6
Last Quarter
Nov 13
New

Hourly Weather History & Observations

Time (HST) Temp. Heat Index Dew Point Humidity Pressure Visibility Wind Dir Wind Speed Gust Speed Precip Events Conditions
12:54 AM - - - N/A% 30.02 in 10.0 mi NE 5.8 mph - N/A   Clear
1:54 AM - - - N/A% 30.01 in 10.0 mi NE 3.5 mph - N/A   Clear
2:54 AM - - - N/A% 30.01 in 10.0 mi Calm Calm - N/A   Clear
3:54 AM - - - N/A% 30.00 in 10.0 mi NNE 5.8 mph - N/A   Clear
4:54 AM - - - N/A% 29.98 in 10.0 mi NNE 11.5 mph 17.3 mph N/A   Clear
5:54 AM 73.4 °F - 66.9 °F 80% 30.00 in 10.0 mi ENE 10.4 mph - N/A   Partly Cloudy
6:54 AM 73.4 °F - 66.9 °F 80% 30.01 in 10.0 mi NNE 8.1 mph 17.3 mph 0.00 in Rain Light Rain
7:54 AM 77.0 °F - 68.0 °F 74% 30.01 in 10.0 mi NE 13.8 mph 17.3 mph 0.00 in   Scattered Clouds
8:54 AM 77.0 °F - 68.0 °F 74% 30.02 in 10.0 mi NE 11.5 mph 20.7 mph N/A   Scattered Clouds
9:54 AM 78.8 °F - 66.9 °F 67% 30.03 in 10.0 mi NNE 8.1 mph 16.1 mph N/A   Scattered Clouds
10:54 AM 82.4 °F 84.4 °F 66.0 °F 57% 30.02 in 10.0 mi ESE 6.9 mph - N/A   Scattered Clouds
11:54 AM 78.8 °F - 64.9 °F 62% 30.01 in 10.0 mi North 8.1 mph - 0.00 in   Scattered Clouds
12:54 PM - - - N/A% 29.98 in 10.0 mi NNE 10.4 mph - N/A   Mostly Cloudy
1:54 PM 80.6 °F 82.4 °F 64.9 °F 59% 29.96 in 10.0 mi NE 9.2 mph 16.1 mph N/A   Scattered Clouds
2:54 PM 82.4 °F 84.1 °F 64.9 °F 55% 29.95 in 10.0 mi North 12.7 mph - N/A   Scattered Clouds
3:54 PM - - - N/A% 29.96 in 10.0 mi NE 10.4 mph 17.3 mph N/A   Scattered Clouds
4:54 PM - - - N/A% 29.96 in 10.0 mi NNE 11.5 mph 19.6 mph N/A   Scattered Clouds
5:54 PM 77.0 °F - 66.0 °F 69% 29.98 in 10.0 mi NNE 12.7 mph 19.6 mph N/A   Mostly Cloudy
6:54 PM 75.2 °F - 64.9 °F 70% 29.99 in 10.0 mi NE 12.7 mph 18.4 mph N/A   Mostly Cloudy
7:54 PM - - - N/A% 29.99 in 10.0 mi NE 10.4 mph 16.1 mph N/A   Clear
8:54 PM - - - N/A% 29.99 in 10.0 mi NNE 4.6 mph - N/A   Clear
9:54 PM - - - N/A% 30.00 in 10.0 mi North 3.5 mph - N/A   Clear
10:54 PM - - - N/A% 30.01 in 10.0 mi East 3.5 mph - N/A   Clear
11:54 PM - - - N/A% 29.99 in 10.0 mi Calm Calm - N/A   Clear